This is the latest recevied weather packets stored in our database for station/object K1JO. If no packets are shown the sender has not sent any weather packets the latest 10 day(s).
| Time | Temp. | Humidity | Pressure | Rain* | Wind** | Luminosity | Snow |
|---|---|---|---|---|---|---|---|
| 1777938584 | 10° C | 87% | 1002.5 hPa | 0 mm | - | 1 W/m² | - |
| 1777938282 | 10.56° C | 85% | 1002.2 hPa | 0 mm | - | 2 W/m² | - |
| 1777937978 | 10.56° C | 85% | 1002.3 hPa | 0 mm | - | 3 W/m² | - |
| 1777937674 | 10.56° C | 84% | 1002.1 hPa | 0 mm | - | 4 W/m² | - |
| 1777937371 | 11.11° C | 82% | 1002 hPa | 0 mm | - | 6 W/m² | - |
| 1777937068 | 11.67° C | 81% | 1002 hPa | 0 mm | - | 10 W/m² | - |
| 1777936765 | 11.67° C | 79% | 1002.1 hPa | 0 mm | - | 15 W/m² | - |
| 1777936461 | 12.22° C | 77% | 1002 hPa | 0 mm | - | 17 W/m² | - |
| 1777936158 | 12.78° C | 76% | 1002 hPa | 0 mm | - | 20 W/m² | - |
| 1777935855 | 12.78° C | 74% | 1001.7 hPa | 0 mm | - | 24 W/m² | - |
| 1777935554 | 13.33° C | 73% | 1001.9 hPa | 0 mm | - | 38 W/m² | - |
| 1777935250 | 13.89° C | 74% | 1001.9 hPa | 0 mm | - | 36 W/m² | - |
| 1777934948 | 13.89° C | 68% | 1002 hPa | 0 mm | - | 28 W/m² | - |
| 1777934644 | 14.44° C | 69% | 1001.6 hPa | 0 mm | - | 37 W/m² | - |
| 1777934341 | 14.44° C | 66% | 1001.7 hPa | 0 mm | - | 61 W/m² | - |
| 1777934036 | 15° C | 63% | 1001.6 hPa | 0 mm | - | 57 W/m² | - |
| 1777933733 | 15° C | 62% | 1001.5 hPa | 0 mm | - | 47 W/m² | - |
| 1777933430 | 15° C | 61% | 1001.6 hPa | 0 mm | - | 45 W/m² | - |
| 1777933128 | 15.56° C | 61% | 1001.6 hPa | 0 mm | - | 54 W/m² | - |
| 1777932824 | 15.56° C | 64% | 1001.5 hPa | 0 mm | - | 63 W/m² | - |
| 1777932522 | 15.56° C | 59% | 1001.6 hPa | 0 mm | - | 77 W/m² | - |
| 1777932218 | 15.56° C | 63% | 1001.5 hPa | 0 mm | - | 101 W/m² | - |
| 1777931916 | 15.56° C | 59% | 1001.6 hPa | 0 mm | - | 70 W/m² | - |
| 1777931612 | 15.56° C | 64% | 1001.6 hPa | 0 mm | - | 87 W/m² | - |
| 1777931308 | 15.56° C | 61% | 1001.6 hPa | 0 mm | - | 92 W/m² | - |
* Rain latest hour (hover to see other rain measurements)
** Current wind speed in m/s (hover to see current wind gust speed)